Temp_Advection
nan nan nan nan nan nan nan nan nan nan nan nan nan nan nan nan nan nan nan nan nan nan
nan 1 1 1 1 0 0 0 0 0 0 0 -0 -0 -0 -0 -0 -0 0 0 0 nan
nan 1 1 1 0 0 0 0 0 0 0 0 0 -0 -0 -0 -0 -0 0 0 0 nan
nan 1 1 1 0 0 0 0 0 0 0 0 0 -0 -0 -0 -0 -0 -0 -0 0 nan
nan 1 0 0 0 0 0 0 0 0 0 0 0 -0 -0 -0 -0 -0 -0 -0 -0 nan
nan 0 0 1 0 0 0 0 0 0 0 -0 -0 -0 -0 -0 -0 -0 -0 -0 0 nan
nan 1 1 1 0 0 0 0 0 0 -0 -0 -0 -0 -0 -0 -0 -0 -0 -0 -0 nan
nan 1 1 1 0 0 0 0 0 0 -0 -0 -0 -0 0 -0 -1 -0 -0 -0 -0 nan
nan 1 1 0 0 0 0 0 0 -0 -0 -0 -0 -0 -0 0 0 -0 -0 -0 -0 nan
nan 1 1 0 0 0 0 0 0 -0 -0 -0 -0 -0 0 0 0 -0 -0 -0 -0 nan
nan 1 0 0 0 0 0 -0 -0 0 -0 -0 0 -0 -0 0 0 -0 -0 -0 -0 nan
nan 0 0 0 0 0 -0 -0 -0 -0 -0 -0 -0 -0 -0 -0 -0 -0 -0 -0 -0 nan
nan 0 0 0 0 0 0 -0 -0 -0 0 -0 -0 -0 0 -0 -0 -0 -0 -0 -0 nan
nan nan nan nan nan nan nan nan nan nan nan nan nan nan nan nan nan nan nan nan nan nan
Wind_Speed
23 24 21 18 15 12 9 7 7 9 12 14 16 17 17 18 19 20 21 22 22 23
26 24 21 18 15 11 9 8 9 11 13 15 17 18 18 19 20 21 22 23 24 26
26 22 19 16 13 11 10 9 10 12 15 16 18 18 19 20 21 23 24 26 27 28
24 21 18 15 13 12 11 10 11 14 16 17 18 19 20 22 23 25 27 27 29 30
22 19 16 14 13 11 10 11 13 15 17 18 18 20 22 24 26 28 29 30 30 31
20 17 16 14 12 11 11 12 14 16 17 18 20 21 23 26 28 28 29 30 31 32
18 16 14 13 12 11 11 13 14 16 17 19 21 23 26 27 28 29 30 30 30 30
17 15 14 12 11 11 12 13 15 16 18 20 23 26 28 27 28 29 30 30 27 25
16 15 13 11 10 11 12 13 15 16 19 22 25 27 28 28 26 28 30 28 26 24
15 13 11 10 10 11 12 13 15 18 21 24 27 28 28 28 25 27 26 26 27 26
13 12 10 10 9 10 12 14 17 20 24 26 27 28 28 26 25 25 25 26 27 30
12 10 9 9 9 10 12 15 18 22 25 27 27 27 27 25 24 25 27 28 31 32
11 9 7 7 9 11 14 17 21 23 24 25 27 27 25 21 23 27 29 30 34 32
8 6 6 8 9 12 16 20 22 22 23 25 26 26 24 21 23 26 29 33 35 37
Wind_Direction
192 189 191 198 200 210 228 250 277 298 309 315 319 322 321 321 320 320 319 319 319 317
186 190 196 202 208 219 235 252 277 296 306 313 317 317 317 318 317 319 319 319 318 317
188 192 200 208 213 223 237 259 281 297 307 312 313 315 316 318 319 319 319 318 317 315
191 195 201 206 215 228 247 268 288 301 306 308 310 314 317 320 320 319 318 317 313 313
194 197 200 209 221 235 254 276 293 301 305 309 313 317 320 321 321 320 318 317 315 314
193 197 205 215 227 243 264 283 294 301 305 309 316 321 322 321 319 319 319 318 316 316
197 203 210 222 236 255 274 287 296 302 309 316 321 322 321 320 321 319 319 319 320 319
200 207 217 229 245 263 278 289 298 307 315 318 320 321 323 323 320 319 321 322 325 328
205 213 221 234 249 267 281 295 305 311 315 318 322 324 323 322 319 318 320 325 331 331
207 214 224 237 254 272 290 299 308 314 318 322 324 323 323 324 319 317 323 329 331 328
207 215 225 243 264 284 296 305 311 317 322 324 324 323 325 325 319 322 327 330 328 328
204 216 233 256 281 294 301 309 318 322 324 323 325 327 326 325 324 326 330 331 333 333
206 223 250 278 291 299 311 319 322 323 323 326 327 327 329 330 328 328 334 330 324 326
208 240 272 286 300 312 317 321 320 323 327 326 327 330 334 332 330 332 327 322 323 326
Height
1470 1475 1480 1484 1485 1486 1487 1488 1488 1488 1487 1487 1485 1483 1482 1481 1479 1477 1474 1472 1469 1466
1469 1473 1477 1481 1483 1484 1486 1486 1486 1485 1485 1484 1482 1480 1479 1477 1475 1473 1470 1467 1465 1461
1467 1471 1475 1478 1480 1483 1484 1484 1483 1483 1482 1481 1479 1477 1475 1473 1471 1468 1466 1462 1459 1456
1465 1469 1473 1476 1478 1480 1481 1481 1480 1480 1479 1478 1476 1473 1471 1468 1466 1463 1461 1458 1453 1449
1464 1467 1471 1474 1476 1477 1478 1478 1477 1476 1475 1474 1472 1469 1466 1464 1462 1458 1454 1451 1446 1442
1463 1467 1469 1472 1474 1474 1474 1474 1473 1473 1471 1470 1468 1465 1462 1459 1456 1453 1449 1444 1439 1435
1462 1465 1467 1470 1471 1471 1471 1471 1470 1469 1467 1466 1464 1461 1458 1455 1451 1448 1443 1439 1434 1429
1461 1463 1465 1467 1468 1468 1468 1467 1466 1466 1464 1462 1460 1457 1453 1450 1446 1441 1436 1433 1428 1423
1459 1461 1463 1464 1465 1465 1465 1464 1464 1462 1461 1458 1455 1452 1449 1444 1440 1435 1431 1426 1422 1418
1457 1459 1460 1462 1462 1462 1462 1462 1461 1458 1456 1454 1451 1447 1443 1439 1434 1430 1426 1421 1416 1411
1455 1457 1459 1460 1460 1460 1460 1459 1457 1455 1452 1450 1446 1442 1438 1433 1429 1425 1421 1417 1412 1407
1453 1455 1457 1458 1458 1458 1457 1455 1454 1451 1448 1444 1442 1437 1432 1428 1423 1420 1416 1411 1407 1402
1452 1454 1455 1456 1456 1455 1454 1452 1450 1448 1444 1440 1436 1432 1428 1423 1419 1415 1410 1406 1402 1398
1451 1453 1454 1454 1453 1452 1451 1449 1447 1444 1440 1437 1433 1427 1423 1419 1416 1411 1406 1401 1395 1391